Home > Weather > Perth > Past weeks

Flag for Australia Weather for the Past 2 Weeks in Perth, Western Australia, Australia

Now
100 °F

Sunny.


Feels Like: 97 °F
Forecast: 78 / 101 °F
Wind: 12 mph from North

Location: Belmont Perth Airport

Current Time: Feb 7, 2016 at 1:10:27 PM

Latest Report: Feb 7, 2016 at 12:30 PM


Visibility: 10 mi

Pressure: 29.95 "Hg

Humidity: 16%

Dew point: 46 °F

Location of PerthLocation

Historic Weather in Perth — Graph

°F

Perth Temperature Yesterday

Maximum temperature yesterday: 91 °F (at 11:30 AM)
Minimum temperature yesterday: 64 °F (at 6:00 AM)
Average temperature yesterday: 80 °F

High & Low Weather Summary for the Past Weeks

 TemperatureHumidityPressure
High99 °F (Jan 29, 2:30 PM)94% (Jan 30, 3:48 PM)30.12 "Hg (Jan 30, 3:48 PM)
Low45 °F (Feb 1, 6:00 AM)13% (Feb 4, 3:30 PM)29.56 "Hg (Jan 31, 2:00 AM)
Average77 °F48%29.89 "Hg
* Reported Jan 23 12:00 Noon — Feb 7 12:00 Noon, Perth, Weather by CustomWeather, © 2016

Note: Actual official high and low records may vary slightly from our data, if they occured in-between our weather recording intervals... More about our weather records

Advertising

Perth Weather History for the Previous 24 Hours

 ConditionsComfort  
Time TempWeatherWind HumidityBarometerVisibility
12:00 PM
Sun, Feb 7
97 °FSunny.13 mph18%29.98 "Hg10 mi
11:30 AM95 °FSunny.15 mph19%29.98 "Hg10 mi
11:00 AM93 °FSunny.16 mph23%29.98 "Hg10 mi
10:00 AM88 °FSunny.17 mph31%29.98 "Hg10 mi
9:30 AM84 °FSunny.18 mph37%30.01 "Hg10 mi
9:00 AM81 °FSunny.18 mph42%30.01 "Hg10 mi
8:00 AM73 °FSunny.22 mph57%30.01 "Hg10 mi
7:30 AM72 °FSunny.21 mph61%30.01 "Hg10 mi
7:00 AM70 °FSunny.16 mph60%29.98 "Hg10 mi
6:00 AM68 °FSunny.12 mph64%29.98 "Hg10 mi
5:00 AM68 °FSunny.9 mph64%29.95 "Hg10 mi
4:30 AM70 °FClear.13 mph60%29.95 "Hg10 mi
4:00 AM70 °FClear.9 mph60%29.95 "Hg10 mi
3:30 AM72 °FClear.8 mph57%29.95 "Hg10 mi
3:00 AM72 °FClear.10 mph57%29.95 "Hg10 mi
2:30 AM73 °FMild.13 mph57%29.95 "HgN/A
2:00 AM73 °FClear.14 mph57%29.95 "Hg10 mi
1:00 AM77 °FClear.10 mph51%29.95 "Hg10 mi
12:30 AM75 °FClear.8 mph57%29.95 "Hg10 mi
12:00 AM73 °FClear.6 mph69%29.95 "Hg10 mi
11:30 PM
Sat, Feb 6
73 °FClear.7 mph69%29.95 "Hg10 mi
11:00 PM75 °FClear.12 mph69%29.95 "Hg10 mi
10:30 PM77 °FWarm.9 mph65%29.95 "HgN/A
10:00 PM77 °FClear.8 mph61%29.95 "Hg10 mi
9:30 PM77 °FClear.8 mph61%29.95 "Hg10 mi
9:00 PM79 °FClear.9 mph58%29.95 "Hg10 mi
8:30 PM79 °FClear.12 mph58%29.95 "Hg10 mi
8:00 PM81 °FClear.10 mph51%29.95 "Hg10 mi
7:30 PM81 °FClear.13 mph51%29.92 "Hg10 mi
7:00 PM82 °FClear.13 mph45%29.92 "Hg10 mi
6:30 PM86 °FClear.13 mph40%29.92 "Hg10 mi
6:00 PM88 °FSunny.14 mph38%29.92 "Hg10 mi
5:30 PM88 °FSunny.15 mph33%29.89 "Hg10 mi
5:00 PM90 °FSunny.16 mph26%29.89 "Hg10 mi
4:30 PM90 °FSunny.16 mph31%29.89 "Hg10 mi
4:00 PM91 °FSunny.16 mph28%29.89 "Hg10 mi
3:30 PM90 °FSunny.17 mph27%29.92 "Hg10 mi
3:00 PM91 °FSunny.16 mph28%29.92 "Hg10 mi
2:30 PM90 °FSunny.17 mph33%29.92 "Hg10 mi
2:00 PM91 °FSunny.14 mph32%29.92 "Hg10 mi
1:30 PM90 °FSunny.15 mph33%29.92 "Hg10 mi
1:00 PM90 °FSunny.16 mph36%29.92 "Hg10 mi
Weather by CustomWeather, © 2016

See weather overviewHow to use our weather pages